Wind_Speed
42 44 45 47 47 46 44 43 44 40 39 47 54 67 60 51 40 43 49 45 42 26 29 25 25 32 34 35 31 31 31 31 32 29 30 28 28 31 30 25 23 23 17
48 46 46 47 49 49 48 46 43 42 41 38 40 41 46 49 42 46 42 39 36 26 29 26 32 37 35 32 30 31 31 30 32 28 28 26 28 29 27 24 19 20 14
48 48 47 46 48 51 51 50 48 46 43 41 41 40 39 43 42 39 38 41 33 29 31 33 35 32 32 33 30 32 31 31 31 28 25 26 28 25 24 23 16 16 14
50 49 51 51 49 47 49 52 50 50 47 44 41 42 41 42 38 35 32 28 29 33 32 35 32 30 31 29 31 33 29 30 29 26 26 27 26 22 22 17 14 15 14
53 47 49 51 50 50 49 47 51 53 51 50 45 42 43 43 38 31 26 24 28 32 31 33 32 29 30 30 32 30 27 28 27 25 25 25 24 24 21 17 16 15 14
59 59 59 58 58 57 51 51 50 53 54 55 51 48 42 40 36 32 28 27 31 32 34 33 29 29 30 31 31 24 26 27 24 25 25 24 22 23 21 18 19 19 15
60 60 62 62 63 62 59 54 53 55 55 55 55 53 44 41 38 35 32 30 34 37 36 32 29 30 30 30 27 25 26 26 24 24 26 25 22 21 20 17 18 18 13
72 72 69 70 68 67 64 61 54 54 56 55 55 57 48 44 43 39 37 37 37 37 35 31 29 29 28 27 25 25 25 22 24 24 27 25 21 22 19 16 15 15 12
57 58 62 67 67 67 70 66 60 56 53 55 55 60 54 46 46 44 41 39 38 37 32 30 28 27 27 26 25 25 21 23 22 24 25 20 19 21 18 14 11 11 11
53 58 62 62 60 62 68 69 65 56 57 55 53 58 55 48 45 45 44 40 37 35 30 28 27 27 28 25 25 23 20 22 22 24 24 21 18 19 17 15 14 12 8
39 38 42 45 48 46 52 57 58 54 51 49 53 52 54 50 47 48 44 41 35 30 28 26 26 28 26 25 21 22 21 20 22 21 18 16 16 16 16 16 14 11 8
39 40 40 43 36 33 41 48 57 56 50 49 48 51 55 49 50 47 42 35 31 27 26 26 28 27 25 22 20 21 20 21 22 21 20 19 17 17 16 15 13 12 11
39 42 43 38 36 37 33 36 39 43 47 49 52 52 54 49 49 43 36 32 29 27 26 28 28 23 21 20 20 19 21 21 21 22 18 18 15 17 17 13 12 12 10
40 38 35 37 40 41 35 32 36 42 52 54 51 59 51 49 44 37 34 31 27 26 28 28 23 21 19 19 19 22 22 21 19 20 17 21 21 17 17 13 12 13 12
22 27 24 35 41 44 40 35 31 38 49 56 59 52 50 42 35 34 32 28 28 28 26 22 19 16 18 20 20 20 19 18 17 17 15 15 15 15 15 13 13 13 12
21 24 24 29 36 39 44 40 41 50 62 61 54 47 43 38 37 33 30 30 28 24 19 16 14 17 18 17 16 15 15 15 15 15 17 19 20 16 15 13 12 12 13
18 22 24 27 31 42 47 48 53 63 66 63 49 43 41 34 32 31 30 28 20 15 15 13 16 15 15 14 14 15 14 13 12 11 14 18 16 14 13 9 10 10 10
31 33 36 43 53 56 54 58 61 57 59 41 38 38 35 34 33 30 25 19 17 15 14 15 14 13 13 13 15 15 12 12 10 9 10 11 12 11 9 9 10 10 10
50 53 54 51 53 54 48 52 54 36 42 41 38 36 31 27 24 23 22 20 17 15 15 15 14 14 14 14 16 14 13 11 10 9 8 8 7 7 8 9 9 9 9
45 46 49 49 42 38 32 38 40 47 40 36 33 29 27 26 24 23 22 19 16 16 16 15 16 15 15 15 13 12 12 11 10 9 8 7 6 7 7 7 7 9 10
39 38 39 41 37 37 36 41 39 39 37 34 32 28 25 23 21 20 17 17 17 16 15 15 15 16 17 16 14 12 10 9 8 8 7 6 6 6 6 7 7 7 6
32 33 33 32 30 30 29 32 30 28 30 27 25 24 21 19 18 17 16 16 15 16 15 16 16 16 16 15 14 11 10 9 8 7 7 6 6 6 6 6 2 2 3
27 26 28 25 24 24 24 25 27 26 25 24 22 20 18 18 17 16 16 17 17 17 17 19 18 16 15 14 13 11 10 9 8 7 6 5 4 4 4 1 2 5 8
22 25 26 27 27 28 30 26 25 24 22 21 19 18 18 17 17 17 16 17 18 19 19 20 18 15 13 12 12 11 10 9 8 8 7 6 4 2 4 6 6 8 11
25 29 24 27 26 25 24 23 20 20 20 20 20 20 18 18 18 18 17 16 16 18 19 18 16 14 14 13 12 12 12 11 10 9 7 5 4 4 6 9 12 15 19
19 20 20 20 19 19 19 20 20 20 21 20 19 20 19 18 18 18 18 18 18 17 17 17 16 16 16 15 13 12 12 11 8 6 5 4 5 7 10 15 18 20 23
Wind_Direction
250 251 250 253 256 259 257 255 254 261 259 247 249 249 246 244 246 254 258 259 265 285 285 283 286 291 292 286 295 299 299 307 306 312 310 309 311 313 311 309 312 305 302
254 251 251 250 252 255 256 256 254 252 249 250 249 249 243 241 243 253 256 259 265 279 289 271 277 284 284 285 290 293 296 303 302 307 305 306 311 309 308 305 302 304 302
260 261 257 255 250 250 251 252 253 251 248 239 245 241 248 250 249 250 254 262 273 277 277 268 276 276 274 279 287 287 291 297 300 302 302 305 308 306 306 304 300 298 303
264 266 264 262 260 255 251 251 251 254 251 249 244 244 238 245 246 246 250 250 259 265 260 261 267 264 267 278 281 285 290 294 295 297 300 306 304 303 304 297 302 297 300
258 253 264 264 261 259 254 247 250 247 248 248 246 245 241 241 242 246 250 242 243 252 249 256 259 260 267 273 278 281 287 290 291 292 300 305 301 300 299 288 280 300 292
256 254 252 258 262 259 252 251 242 245 241 242 240 241 240 240 239 238 233 232 243 246 249 251 252 258 266 271 274 280 282 281 288 291 299 299 296 293 288 280 274 285 281
263 260 260 257 256 256 257 250 248 244 241 238 237 238 235 236 235 232 231 229 236 242 246 248 249 256 264 268 271 273 273 281 288 294 301 300 287 286 282 275 274 282 275
268 267 266 261 256 255 255 252 248 244 242 237 234 232 228 228 227 225 224 226 230 237 243 246 250 258 263 268 271 268 271 280 283 293 298 297 282 282 269 266 272 281 255
263 258 257 259 258 254 253 250 249 242 237 236 231 226 222 222 223 220 222 226 229 236 240 244 250 255 261 263 260 264 276 277 283 291 291 286 282 273 257 248 265 260 261
259 257 256 261 258 252 247 244 243 236 232 232 228 223 217 215 217 219 222 225 226 231 234 242 248 252 255 254 258 269 267 275 283 286 289 285 275 258 249 249 257 269 254
258 258 259 261 263 252 234 225 220 222 223 228 225 220 211 209 211 217 221 223 226 229 232 239 245 247 249 251 261 263 267 273 280 285 285 269 262 247 244 247 251 257 255
254 260 263 248 252 230 217 204 211 215 216 222 219 214 201 203 210 213 218 220 221 223 231 238 240 243 247 257 257 264 269 272 271 272 268 267 252 240 234 244 243 242 249
254 260 266 246 232 221 214 205 206 212 209 213 212 199 191 200 208 211 209 212 214 221 230 234 237 241 252 253 262 266 268 265 259 261 257 254 240 237 231 236 241 247 255
261 272 258 229 216 215 206 209 212 208 204 202 189 181 188 198 203 202 200 203 212 220 223 230 237 246 251 262 262 263 262 259 253 248 249 242 242 223 231 238 246 243 250
269 263 246 216 211 212 206 205 205 192 174 169 172 176 190 192 192 192 193 200 207 214 221 232 243 255 264 263 258 258 257 251 244 240 239 228 218 222 227 232 241 248 254
246 229 223 204 201 204 202 199 184 172 165 164 169 177 181 181 182 184 193 200 206 210 226 236 247 258 254 255 256 243 238 235 233 231 234 220 217 220 229 239 252 262 267
205 191 187 182 176 175 176 173 170 164 163 161 166 170 167 174 180 188 196 199 205 221 231 242 251 246 252 248 232 227 222 219 222 214 209 213 218 230 240 251 261 263 267
137 137 142 149 149 151 158 159 157 160 161 158 168 164 168 175 183 189 195 198 212 219 231 239 236 241 230 218 216 218 210 213 206 201 206 215 224 232 238 249 259 268 272
124 124 128 134 137 140 148 155 157 159 139 153 158 163 170 175 181 197 204 210 213 220 225 225 227 213 210 210 209 205 197 199 199 203 212 211 215 229 245 258 268 274 276
128 130 136 137 140 145 147 148 124 135 148 156 161 161 168 179 187 194 201 205 211 214 218 218 212 210 207 206 200 192 193 197 201 205 209 215 227 242 252 258 262 271 280
107 116 117 127 129 121 131 130 137 147 155 161 164 167 177 184 191 196 200 201 203 204 209 207 207 206 202 195 187 185 192 194 195 203 215 220 218 230 253 264 271 274 279
109 112 115 120 125 127 133 140 148 155 159 157 165 175 179 186 193 194 193 195 196 198 195 192 193 190 188 185 178 173 180 187 192 196 201 210 233 253 271 272 267 278 314
114 118 118 128 136 143 146 151 151 154 161 167 169 173 177 181 180 182 187 188 189 186 185 183 181 174 175 174 171 174 183 188 196 211 224 231 246 207 197 263 318 297 287
139 134 136 140 144 143 152 155 157 162 166 166 163 163 165 172 175 178 182 180 178 178 179 179 173 172 171 172 176 182 187 191 192 186 181 189 196 209 272 280 284 291 299
121 132 135 142 144 151 153 155 162 159 154 152 154 158 164 168 169 167 163 164 166 169 171 169 167 168 171 172 172 174 172 176 183 183 187 210 241 268 299 311 313 313 309
134 142 146 145 146 147 151 153 151 151 152 154 160 160 156 154 156 160 160 161 162 165 167 164 164 167 167 166 171 174 177 182 186 201 215 238 280 301 309 310 311 310 307
Height
5692 5695 5698 5700 5702 5705 5710 5713 5717 5721 5726 5729 5738 5743 5748 5756 5763 5766 5771 5772 5775 5775 5777 5777 5776 5778 5778 5778 5774 5776 5776 5774 5773 5769 5768 5766 5760 5757 5753 5750 5747 5743 5740
5679 5682 5685 5688 5691 5694 5697 5701 5707 5712 5717 5722 5728 5730 5734 5742 5751 5754 5759 5764 5767 5767 5768 5767 5771 5771 5768 5768 5768 5770 5769 5768 5767 5764 5764 5760 5754 5751 5748 5746 5743 5740 5737
5664 5666 5670 5673 5677 5680 5684 5689 5694 5700 5706 5711 5717 5722 5725 5730 5738 5746 5748 5753 5756 5757 5757 5760 5762 5760 5762 5762 5762 5763 5763 5763 5761 5759 5757 5754 5749 5746 5743 5741 5739 5736 5734
5650 5651 5654 5657 5661 5666 5669 5673 5678 5682 5690 5697 5704 5711 5716 5722 5728 5733 5738 5740 5747 5749 5752 5754 5753 5754 5754 5756 5756 5757 5756 5756 5755 5753 5750 5747 5742 5741 5739 5736 5735 5733 5731
5635 5638 5638 5640 5644 5649 5654 5660 5664 5669 5676 5684 5692 5699 5705 5712 5718 5722 5726 5732 5740 5741 5744 5744 5744 5745 5747 5750 5749 5751 5749 5749 5748 5747 5743 5741 5736 5734 5733 5732 5731 5729 5728
5617 5621 5625 5626 5628 5631 5638 5643 5650 5656 5663 5671 5680 5688 5694 5700 5706 5712 5720 5726 5728 5731 5734 5735 5738 5739 5741 5743 5742 5742 5743 5742 5740 5738 5735 5734 5731 5730 5729 5728 5727 5725 5724
5596 5600 5604 5608 5611 5615 5619 5627 5633 5640 5647 5656 5665 5674 5682 5689 5695 5703 5711 5714 5719 5722 5725 5728 5730 5731 5733 5735 5735 5736 5735 5734 5733 5730 5728 5727 5725 5724 5723 5723 5722 5720 5720
5575 5577 5580 5583 5588 5594 5599 5607 5616 5623 5631 5639 5649 5659 5670 5680 5687 5694 5702 5706 5707 5712 5717 5720 5721 5724 5726 5726 5728 5728 5728 5726 5725 5723 5722 5721 5719 5718 5718 5718 5717 5716 5716
5553 5555 5556 5557 5563 5569 5575 5586 5597 5607 5615 5623 5633 5644 5657 5669 5678 5685 5692 5695 5698 5704 5708 5710 5713 5716 5719 5720 5721 5722 5720 5718 5718 5717 5716 5715 5714 5712 5713 5714 5714 5713 5712
5533 5534 5534 5536 5537 5541 5549 5562 5576 5587 5599 5608 5618 5631 5645 5658 5667 5675 5678 5685 5691 5696 5698 5702 5706 5710 5713 5714 5714 5712 5713 5712 5712 5711 5710 5709 5708 5707 5709 5710 5711 5710 5709
5514 5516 5518 5520 5519 5520 5525 5537 5552 5569 5583 5595 5609 5620 5633 5646 5657 5661 5671 5677 5684 5688 5692 5697 5700 5703 5706 5707 5706 5704 5705 5707 5705 5705 5704 5703 5704 5704 5705 5706 5707 5707 5706
5502 5504 5506 5508 5509 5510 5512 5525 5539 5554 5570 5584 5597 5608 5623 5639 5645 5656 5664 5670 5675 5681 5686 5689 5695 5697 5698 5697 5697 5698 5699 5699 5699 5699 5699 5699 5699 5700 5702 5703 5704 5704 5704
5488 5490 5491 5492 5501 5505 5512 5521 5531 5542 5556 5570 5583 5598 5617 5629 5639 5650 5657 5662 5670 5676 5679 5684 5688 5690 5690 5689 5689 5690 5692 5692 5693 5693 5694 5695 5696 5697 5698 5699 5700 5701 5702
5476 5476 5476 5480 5490 5499 5506 5514 5521 5530 5542 5555 5576 5594 5610 5623 5634 5644 5651 5658 5664 5670 5675 5678 5679 5680 5680 5682 5683 5684 5684 5685 5687 5688 5689 5690 5688 5693 5695 5696 5697 5697 5699
5464 5465 5465 5469 5478 5489 5499 5508 5516 5525 5539 5556 5576 5594 5605 5618 5629 5638 5647 5654 5660 5665 5670 5671 5670 5670 5674 5675 5677 5677 5678 5680 5682 5683 5685 5686 5687 5689 5691 5692 5693 5694 5695
5456 5458 5461 5464 5470 5479 5490 5501 5512 5523 5538 5557 5576 5589 5603 5614 5626 5635 5644 5649 5654 5660 5663 5662 5663 5667 5669 5670 5671 5672 5674 5676 5677 5679 5680 5682 5684 5686 5688 5689 5691 5692 5693
5450 5454 5458 5464 5469 5476 5488 5500 5509 5521 5534 5553 5573 5589 5601 5614 5623 5633 5638 5645 5651 5651 5653 5657 5661 5662 5663 5665 5667 5669 5671 5673 5674 5675 5677 5679 5681 5684 5686 5687 5688 5689 5690
5453 5459 5467 5475 5482 5490 5500 5510 5522 5529 5538 5548 5562 5590 5601 5612 5622 5630 5634 5639 5642 5646 5650 5653 5656 5657 5660 5662 5664 5666 5668 5670 5672 5674 5676 5678 5680 5682 5683 5685 5686 5686 5687
5471 5476 5484 5493 5502 5510 5518 5525 5529 5533 5543 5567 5581 5590 5602 5611 5618 5624 5630 5635 5639 5643 5646 5649 5652 5655 5658 5660 5662 5664 5666 5668 5671 5673 5675 5677 5679 5680 5682 5684 5684 5684 5685
5487 5491 5500 5506 5513 5522 5531 5533 5540 5548 5565 5577 5587 5594 5603 5610 5617 5623 5627 5632 5635 5639 5643 5647 5649 5653 5656 5658 5660 5662 5664 5667 5669 5671 5673 5675 5677 5679 5680 5681 5682 5682 5682
5501 5506 5511 5516 5524 5532 5539 5546 5556 5565 5574 5583 5589 5595 5604 5610 5616 5620 5624 5629 5633 5637 5641 5644 5647 5650 5653 5656 5658 5661 5663 5666 5668 5671 5673 5674 5676 5677 5678 5679 5680 5680 5680
5510 5520 5523 5530 5537 5543 5550 5558 5566 5574 5580 5584 5591 5599 5604 5609 5614 5619 5623 5628 5632 5634 5638 5641 5645 5648 5651 5654 5657 5659 5662 5665 5667 5669 5671 5673 5674 5675 5676 5677 5677 5677 5677
5529 5532 5535 5540 5545 5552 5558 5564 5570 5576 5583 5590 5596 5600 5604 5609 5613 5618 5621 5625 5628 5632 5636 5640 5644 5647 5650 5653 5655 5658 5661 5663 5666 5668 5670 5671 5672 5673 5673 5674 5674 5674 5674
5539 5543 5548 5552 5557 5561 5567 5573 5578 5582 5587 5592 5596 5600 5605 5609 5613 5616 5620 5623 5627 5631 5635 5639 5642 5645 5649 5652 5654 5657 5659 5662 5664 5666 5667 5668 5669 5670 5670 5671 5671 5671 5670
5547 5551 5555 5559 5564 5568 5572 5576 5581 5585 5589 5593 5598 5602 5606 5610 5613 5617 5620 5624 5627 5631 5634 5638 5641 5645 5648 5650 5653 5655 5658 5660 5662 5663 5665 5666 5667 5668 5668 5668 5668 5667 5666
5556 5558 5561 5564 5567 5571 5576 5580 5583 5587 5592 5597 5601 5605 5608 5611 5615 5618 5621 5624 5628 5630 5634 5637 5640 5644 5646 5649 5651 5654 5656 5659 5661 5662 5664 5665 5665 5665 5665 5664 5664 5662 5660